Simultaneous Nadir Overpasses (SNOs) Predictions

Prediction of SNOs between AQUA and NPP Satellite Orbit:

Table of predicted SNOs for the next 14.0 days since TLE Epoch: 2/29/2020
Index Date (AQUA) Time (AQUA) Lat,Lon (AQUA) SZA (AQUA ) Date (NPP) Time (NPP) Lat,Lon (NPP) SZA (NPP ) Distance(km) Time Diff (sec)
1 02/29/2020 06:21:50 -76.22, 144.36 74.84 02/29/2020 06:21:06 -76.23, 144.43 74.82 2.03 44
2 02/29/2020 07:10:58 77.04, -45.16 104.19 02/29/2020 07:11:32 77.04, -45.15 104.15 0.32 34
3 03/02/2020 22:38:11 -76.62, -98.42 76.34 03/02/2020 22:37:52 -76.63, -98.32 76.35 2.62 19
4 03/02/2020 23:27:21 77.34, 71.88 102.79 03/02/2020 23:28:20 77.34, 71.91 102.74 0.88 59
5 03/05/2020 14:05:31 75.77,-152.90 103.62 03/05/2020 14:04:21 75.77,-152.88 103.68 0.50 70
6 03/05/2020 14:54:42 -76.59, 17.35 77.34 03/05/2020 14:54:49 -76.58, 17.27 77.33 2.22 7
7 03/08/2020 06:21:52 76.22, -35.63 102.05 03/08/2020 06:21:07 76.23, -35.58 102.08 1.43 45
8 03/08/2020 07:11:04 -76.98, 134.61 78.86 03/08/2020 07:11:36 -76.98, 134.58 78.88 0.66 32
9 03/10/2020 22:38:13 76.66, 81.71 100.48 03/10/2020 22:37:53 76.67, 81.82 100.47 2.85 20
10 03/10/2020 23:27:25 -77.40,-107.89 80.43 03/10/2020 23:28:22 -77.40,-107.84 80.49 1.47 57
11 03/13/2020 14:05:32 -75.97, 27.69 79.78 03/13/2020 14:04:20 -75.98, 27.78 79.74 2.71 72
12 03/13/2020 14:54:41 76.71,-162.24 99.35 03/13/2020 14:54:47 76.70,-162.28 99.36 1.24 6




NCC Satellite Simultaneous Nadir Overpasses (SNOs) Prediction Service
